{"data":{"norad_id":57999,"epoch":"2026-05-25T00:12:18.739872Z","epoch_age_seconds":75087,"freshness":"FRESH","line1":"1 57999U 23153J   26145.00855023  .00005361  00000+0  20409-3 0  9996","line2":"2 57999  43.0008 356.4522 0001188 275.0949  84.9767 15.27596113146560","mean_motion":15.27596113,"eccentricity":0.0001188,"inclination_deg":43.0008,"raan_deg":356.4522,"arg_perigee_deg":275.0949,"mean_anomaly_deg":84.9767,"bstar":0.00020409,"rev_number":14656,"period_min":94.265754393157,"perigee_km":482.18574516875,"apogee_km":483.81595152151,"semimajor_km":6861.1378483451,"source":"CELESTRAK","updated_at":"2026-05-25T13:38:18.491023Z"}}